Home   Weather   Fairfield   Past weeks
Flag for USA

Past Weather in Fairfield, North Carolina, USA — Yesterday and Last 2 Weeks

Now
45 °F

Passing clouds.


Feels Like: 38 °F
Forecast: 55 / 38 °F
Wind: 17 mph from Northwest

Location: Piedmont Triad International Airport

Current Time: Dec 5, 2019 at 9:52:42 am

Latest Report: Dec 5, 2019 at 8:54 am


Visibility: 10 mi

Pressure: 30.03 "Hg

Humidity: 44%

Dew Point: 24 °F

Location of FairfieldLocation

Past Weather in Fairfield — Graph

°F

Fairfield Temperature Yesterday

Maximum temperature yesterday: 57 °F (at 2:54 pm)
Minimum temperature yesterday: 33 °F (at 4:54 am)
Average temperature yesterday: 44 °F

High & Low Weather Summary for the Past Weeks

 TemperatureHumidityPressure
High62 °F (Nov 22, 2:54 pm)100% (Nov 23, 5:54 pm)30.30 "Hg (Nov 23, 5:54 pm)
Low30 °F (Nov 25, 6:54 am)28% (Dec 4, 3:54 pm)29.47 "Hg (Dec 1, 4:54 pm)
Average47 °F71%29.91 "Hg
* Reported Nov 20 7:54 am — Dec 5 7:54 am, Fairfield. Weather by CustomWeather, © 2019

Note: Actual official high and low records may vary slightly from our data, if they occured in-between our weather recording intervals... More about our weather records

Fairfield Weather History for the Previous 24 Hours

Scroll right to see more
 ConditionsComfort  
Time TempWeatherWind HumidityBarometerVisibility
7:54 am
Thu, Dec 5
42 °FPassing clouds.12 mph49%30.02 "Hg10 mi
6:54 am40 °FPassing clouds.8 mph51%29.98 "Hg10 mi
5:54 am42 °FClear.14 mph45%29.93 "Hg10 mi
4:54 am43 °FClear.13 mph43%29.88 "Hg10 mi
3:54 am45 °FClear.8 mph38%29.84 "Hg10 mi
2:54 am42 °FClear.9 mph43%29.81 "Hg10 mi
1:54 am42 °FClear.6 mph45%29.78 "Hg10 mi
12:54 am43 °FClear.7 mph45%29.76 "Hg10 mi
11:54 pm
Wed, Dec 4
40 °FClear.9 mph55%29.75 "Hg10 mi
10:54 pm39 °FClear.7 mph57%29.76 "Hg10 mi
9:54 pm41 °FClear.6 mph53%29.75 "Hg10 mi
8:54 pm43 °FClear.3 mph45%29.74 "Hg10 mi
7:54 pm45 °FClear.5 mph42%29.73 "Hg10 mi
6:54 pm46 °FClear.5 mph38%29.73 "Hg10 mi
5:54 pm51 °FPassing clouds.13 mph32%29.71 "Hg10 mi
4:54 pm53 °FSunny.15 mph30%29.67 "Hg10 mi
3:54 pm57 °FPassing clouds.18 mph28%29.65 "Hg10 mi
2:54 pm57 °FPassing clouds.12 mph33%29.64 "Hg10 mi
1:54 pm54 °FPassing clouds.16 mph38%29.64 "Hg10 mi
12:54 pm53 °FScattered clouds.15 mph39%29.66 "Hg10 mi
11:54 am51 °FPartly sunny.8 mph42%29.69 "Hg10 mi
10:54 am47 °FPartly sunny.10 mph46%29.73 "Hg10 mi
9:54 am43 °FPartly sunny.8 mph53%29.75 "Hg10 mi
Weather by CustomWeather, © 2019

See weather overview

Advertising